[[{"header":{"parameterUnit":"m.s-1","parameterCategory":1,"la1":30.2991,"la2":30.254,"lo1":-89.0895,"lo2":-89.0444,"dy":0.0017,"dx":0.0017,"nx":28,"ny":28,"refTime":"2023-09-04T21:00:00:Z","depth":0,"parameterNumber":2,"parameterNumberName":"U-component_of_WINDS"},"data":[0,0,0,0,0,0,0,0,0,0,0,0,0,0,0,0,0,0,0,0,0,0,0,0,0,0,0,0,0,0,0,0,0,0,0,0,0,0,0,0,0,0,0,0,0,0,0,0,0,0,0,0,0,0,0,0,0,0,-4.5523,-4.5524,0,-4.5625,-4.5626,-4.5627,-4.5594,-4.5592,-4.559,-4.5588,-4.5691,-4.5696,-4.57,0,0,0,0,0,0,0,0,0,0,0,0,0,-4.53,-4.5304,-4.5522,-4.5524,-4.5525,-4.5624,-4.5626,-4.5627,-4.5595,-4.5592,-4.559,-4.5587,-4.569,-4.5695,-4.5701,0,0,0,0,0,0,0,0,0,0,0,0,0,-4.5398,-4.5305,-4.5522,-4.5521,-4.5522,-4.5624,-4.5626,-4.5628,-4.5595,-4.5592,-4.5589,-4.5586,-4.5688,-4.5695,-4.5702,-4.5811,0,0,-4.5724,-4.5727,0,0,0,0,0,0,0,0,-4.5393,-4.5407,-4.552,-4.5521,-4.5522,-4.5593,-4.5585,-4.5689,-4.5596,-4.5567,-4.5588,-4.5584,-4.5661,-4.567,-4.5697,-4.5816,-4.582,-4.5724,-4.5729,-4.5732,-4.5734,0,0,0,0,0,0,0,-4.5386,-4.5402,-4.5563,-4.5522,-4.5523,-4.5515,-4.5526,-4.5605,-4.5631,-4.557,-4.5568,-4.558,-4.5661,-4.569,-4.5699,-4.5822,-4.5724,-4.573,-4.5735,-4.5738,-4.6036,-4.604,0,0,0,0,0,0,-4.5379,-4.5397,-4.556,-4.5566,-4.5448,-4.5522,-4.5534,-4.5574,-4.563,-4.5636,-4.5583,-4.5578,-4.5679,-4.569,-4.5702,-4.5833,-4.5732,-4.5738,-4.5742,-4.6033,-4.6037,-4.6041,0,0,0,0,0,0,-4.5374,-4.5393,-4.5555,-4.5481,-4.5501,-4.5529,-4.5575,-4.5578,-4.5606,-4.564,-4.5645,-4.5607,-4.5677,-4.5692,-4.5784,-4.5837,-4.5741,-4.5748,-4.6028,-4.6034,-4.6039,-4.6097,0,0,0,0,0,0,-4.5368,-4.5392,-4.5434,-4.5482,-4.5505,-4.5636,-4.5578,-4.5582,-4.5619,-4.5614,-4.5664,-4.5669,-4.5676,-4.5774,-4.5791,-4.5845,-4.5754,-4.6024,-4.6031,-4.6037,-4.609,-4.6104,-4.6115,0,0,0,0,0,-4.536,-4.5446,-4.5436,-4.5456,-4.5558,-4.5639,-4.5652,-4.5658,-4.5623,-4.5665,-4.5687,-4.5668,-4.5829,-4.5784,-4.5803,-4.5859,-4.602,-4.6029,-4.6037,-4.6085,-4.6101,-4.6115,0,0,0,0,0,0,-4.5402,-4.5452,-4.5441,-4.5546,-4.5589,-4.5633,-4.5686,-4.5675,-4.5728,-4.5721,-4.5726,-4.5738,-4.5832,-4.5855,-4.5804,-4.5968,-4.5919,-4.5932,-4.5949,-4.5965,-4.5977,-4.5968,-4.5759,0,0,0,0,0,-4.5423,-4.5485,-4.5526,-4.5614,-4.5636,-4.5658,-4.5693,-4.5694,-4.5739,-4.5756,-4.5785,-4.5829,-4.5889,-4.5929,-4.5986,-4.6095,-4.6105,-4.6143,-4.6155,-4.6165,-4.6175,-4.6234,-4.6252,-4.6068,-4.6068,-4.6068,0,0,-4.5468,-4.5503,-4.5542,-4.5623,-4.5656,-4.572,-4.5673,-4.5743,-4.579,-4.5767,-4.5855,-4.5879,-4.5928,-4.6029,-4.6074,-4.6051,-4.6229,-4.6176,-4.6184,-4.6188,-4.6245,-4.6262,-4.6277,-4.6074,-4.6073,-4.6072,0,0,-4.5581,-4.5615,-4.5691,-4.5726,-4.5778,-4.5792,-4.5811,-4.5858,-4.5873,-4.5962,-4.5946,-4.6003,-4.6107,-4.6142,-4.6174,-4.6304,-4.6288,-4.6323,-4.6386,-4.6443,-4.6458,-4.6471,-4.6516,-4.6532,-4.6333,-4.6333,-4.6333,0,-4.563,-4.5726,-4.5732,-4.5804,-4.584,-4.5823,-4.5901,-4.5934,-4.6002,-4.6027,-4.6,-4.6131,-4.6162,-4.6271,-4.6303,-4.633,-4.6351,-4.6315,-4.6455,-4.6468,-4.648,-4.6524,-4.6541,-4.6337,-4.6337,-4.6336,-4.6336,0,-4.5783,-4.585,-4.5906,-4.5972,-4.6015,-4.6089,-4.6106,-4.6149,-4.6147,-4.6165,-4.6256,-4.6294,-4.6359,-4.6386,-4.6384,-4.6495,-4.6478,-4.6454,-4.6404,-4.6502,-4.6542,-4.6559,-4.6342,-4.6341,-4.634,-4.6339,0,0,-4.5923,-4.5993,-4.6013,-4.6043,-4.61,-4.6152,-4.6226,-4.629,-4.6326,-4.6374,-4.6436,-4.6525,-4.6503,-4.6539,-4.6542,-4.6593,-4.6692,-4.6562,-4.6563,-4.6583,-4.6816,-4.6833,-4.6852,-4.6683,-4.6686,-4.6689,-4.6811,0,-4.604,-4.617,-4.6179,-4.6296,-4.6358,-4.6344,-4.6408,-4.645,-4.6469,-4.6524,-4.6545,-4.6608,-4.6574,-4.6596,-4.6646,-4.6669,-4.6738,-4.6661,-4.6739,-4.6742,-4.6725,-4.6873,-4.6891,-4.7005,-4.6827,-4.683,-4.6832,0,-4.6194,-4.6247,-4.637,-4.6419,-4.6445,-4.6503,-4.6562,-4.6616,-4.6663,-4.6673,-4.6715,-4.6711,-4.6787,-4.6737,-4.6841,-4.6788,-4.6822,-4.6838,-4.6843,-4.6849,-4.6791,-4.6881,-4.7041,-4.7057,-4.6857,-4.6855,-4.6853,0,-4.6282,-4.6385,-4.6472,-4.6498,-4.6557,-4.6598,-4.6624,-4.6669,-4.6707,-4.676,-4.6785,-4.6846,-4.6879,-4.6926,-4.6939,-4.6901,-4.7043,-4.6994,-4.7053,-4.7053,-4.7081,-4.7079,-4.7247,-4.7106,-4.7106,-4.7105,-4.7105,0,-4.6411,-4.6487,-4.6512,-4.6566,-4.665,-4.666,-4.6744,-4.6768,-4.6808,-4.6866,-4.6858,-4.6913,-4.6927,-4.6985,-4.6995,-4.708,-4.7095,-4.7105,-4.7107,-4.7105,-4.7104,-4.7125,-4.7117,-4.711,-4.7109,-4.7108,-4.7107,0,-4.6523,-4.6543,-4.6637,-4.6686,-4.67,-4.676,-4.6802,-4.6853,-4.6872,-4.6945,-4.6963,-4.6992,-4.706,-4.7078,-4.7158,-4.7166,-4.7265,-4.726,-4.7249,-4.7248,-4.7306,-4.73,-4.7492,-4.7517,-4.7361,-4.7363,-4.7364,0,-4.6603,-4.6661,-4.6717,-4.6755,-4.6783,-4.6845,-4.6885,-4.6897,-4.6938,-4.6998,-4.7042,-4.7109,-4.7162,-4.727,-4.7298,-4.736,-4.7356,-4.7419,-4.7365,-4.7361,-4.7355,-4.7351,-4.7357,-4.7428,-4.743,-4.7432,-4.7433,0,-4.6743,-4.675,-4.6807,-4.6868,-4.6916,-4.6964,-4.7011,-4.7043,-4.7062,-4.7109,-4.7178,-4.722,-4.7303,-4.7368,-4.7431,-4.7458,-4.7449,-4.745,-4.7467,-4.7464,-4.7455,-4.746,-4.7275,-4.7445,-4.7444,-4.7443,-4.7442,-4.7442,-4.684,-4.6891,-4.6938,-4.7002,-4.7039,-4.7083,-4.7134,-4.7159,-4.7217,-4.7285,-4.729,-4.7364,-4.7411,-4.7495,-4.7526,-4.7584,-4.7565,-4.759,-4.7596,-4.7601,-4.7606,-4.7447,-4.7596,-4.7596,-4.7595,-4.7595,-4.7595,0,-4.6978,-4.7008,-4.7067,-4.7133,-4.7184,-4.7172,-4.7223,-4.7266,-4.7332,-4.7377,-4.743,-4.7509,-4.7574,-4.7608,-4.7672,-4.7712,-4.771,-4.7729,-4.7725,-4.7731,-4.7619,-4.7598,-4.773,-4.773,-4.773,-4.773,-4.773,-4.773,-4.7056,-4.7141,-4.7155,-4.7259,-4.7288,-4.7361,-4.7392,-4.7432,-4.7468,-4.7557,-4.7611,-4.7633,-4.7674,-4.7741,-4.78,-4.7808,-4.7832,-4.7853,-4.7859,-4.7753,-4.7739,-4.7726,-4.7706,-4.7858,-4.7858,-4.7966,-4.7967,-4.7968]},{"header":{"parameterUnit":"m.s-1","parameterCategory":1,"la1":30.2991,"la2":30.254,"lo1":-89.0895,"lo2":-89.0444,"dy":0.0017,"dx":0.0017,"nx":28,"ny":28,"refTime":"2023-09-04T21:00:00:Z","depth":0,"parameterNumber":3,"parameterNumberName":"V-component_of_WINDS"},"data":[0,0,0,0,0,0,0,0,0,0,0,0,0,0,0,0,0,0,0,0,0,0,0,0,0,0,0,0,0,0,0,0,0,0,0,0,0,0,0,0,0,0,0,0,0,0,0,0,0,0,0,0,0,0,0,0,0,0,4.9167,4.9167,0,4.9147,4.9147,4.9146,4.9086,4.9084,4.9083,4.9082,4.9063,4.9064,4.9064,0,0,0,0,0,0,0,0,0,0,0,0,0,4.9156,4.9157,4.9167,4.9167,4.9167,4.9147,4.9147,4.9146,4.9086,4.9084,4.9083,4.9081,4.9063,4.9064,4.9064,0,0,0,0,0,0,0,0,0,0,0,0,0,4.9151,4.9157,4.9167,4.9134,4.9131,4.9147,4.9147,4.9146,4.9086,4.9084,4.9082,4.9081,4.9062,4.9063,4.9065,4.9111,0,0,4.9068,4.9068,0,0,0,0,0,0,0,0,4.9152,4.9152,4.9139,4.9137,4.9133,4.9117,4.9136,4.9135,4.9087,4.9103,4.9082,4.908,4.9083,4.9082,4.9082,4.911,4.911,4.9068,4.9069,4.9069,4.9069,0,0,0,0,0,0,0,4.9152,4.9152,4.9159,4.9139,4.9135,4.9121,4.9118,4.9135,4.9105,4.9102,4.9097,4.9096,4.908,4.9082,4.9082,4.9109,4.9068,4.9069,4.907,4.907,4.9174,4.9176,0,0,0,0,0,0,4.9157,4.9153,4.916,4.9159,4.9138,4.9123,4.912,4.9124,4.9104,4.9099,4.9097,4.9093,4.9081,4.908,4.9081,4.9133,4.9069,4.907,4.9071,4.9172,4.9175,4.9177,0,0,0,0,0,0,4.9157,4.9158,4.9161,4.9155,4.9154,4.9125,4.9131,4.9125,4.9126,4.9101,4.9095,4.9104,4.9079,4.9079,4.9104,4.9132,4.9071,4.9072,4.917,4.9173,4.9176,4.9239,0,0,0,0,0,0,4.9157,4.9158,4.9175,4.9155,4.9154,4.9184,4.9132,4.9126,4.9127,4.9121,4.9105,4.9101,4.9078,4.9103,4.9105,4.9132,4.9072,4.9167,4.9171,4.9175,4.9235,4.9244,4.9253,0,0,0,0,0,4.9157,4.9194,4.9176,4.9177,4.9175,4.9185,4.9185,4.9156,4.913,4.9147,4.9131,4.9101,4.9129,4.9106,4.9108,4.9136,4.9165,4.917,4.9175,4.9231,4.9242,4.9252,0,0,0,0,0,0,4.9219,4.9191,4.9171,4.9203,4.9197,4.9175,4.9195,4.917,4.9172,4.9166,4.9132,4.9129,4.9158,4.915,4.9124,4.918,4.9142,4.9148,4.9184,4.9195,4.9204,4.9204,4.9073,0,0,0,0,0,4.9236,4.9246,4.9222,4.9253,4.9251,4.9224,4.9228,4.9207,4.9199,4.9196,4.9182,4.9177,4.9184,4.9189,4.9195,4.9234,4.9229,4.9254,4.9263,4.9271,4.9275,4.9295,4.9306,4.9193,4.9193,4.9193,0,0,4.9272,4.9258,4.9267,4.9265,4.9258,4.927,4.9222,4.9237,4.9245,4.9199,4.922,4.921,4.9202,4.9234,4.9248,4.9228,4.9306,4.9277,4.9283,4.9283,4.9301,4.9312,4.9321,4.9196,4.9195,4.9195,0,0,4.9343,4.9335,4.9359,4.9353,4.9342,4.9324,4.933,4.9312,4.9303,4.9325,4.929,4.9301,4.9314,4.9309,4.9308,4.9379,4.9352,4.9383,4.9429,4.9448,4.9457,4.9465,4.9489,4.9498,4.9388,4.9388,4.9388,0,4.9389,4.9405,4.9375,4.9391,4.9391,4.935,4.9374,4.937,4.9363,4.9364,4.9342,4.9358,4.935,4.938,4.9397,4.9398,4.9404,4.9383,4.9458,4.9466,4.9472,4.9495,4.9504,4.9391,4.9391,4.9391,4.939,0,4.9462,4.9474,4.9495,4.9487,4.949,4.9511,4.9484,4.9491,4.9471,4.9455,4.9478,4.9467,4.9469,4.9475,4.9455,4.9502,4.949,4.9464,4.9425,4.9487,4.9508,4.9517,4.9397,4.9395,4.9394,4.9393,0,0,4.957,4.9546,4.9554,4.955,4.9536,4.9545,4.9564,4.9566,4.9572,4.9569,4.9584,4.9597,4.9572,4.9572,4.9552,4.9569,4.9625,4.954,4.954,4.9555,4.9675,4.9694,4.9704,4.9608,4.9609,4.961,4.9676,0,4.9636,4.9666,4.964,4.9676,4.9686,4.9647,4.9664,4.9658,4.9644,4.9652,4.9638,4.9647,4.9614,4.9614,4.963,4.9615,4.9648,4.961,4.9621,4.9622,4.9622,4.9715,4.9735,4.9797,4.9684,4.9685,4.9686,0,4.9717,4.9716,4.9753,4.9736,4.974,4.9755,4.9754,4.9762,4.9755,4.9744,4.9744,4.9719,4.9737,4.9701,4.9725,4.97,4.9703,4.9697,4.9699,4.9697,4.9656,4.9715,4.9816,4.9825,4.9699,4.9698,4.9697,0,4.979,4.9799,4.9822,4.982,4.9802,4.9813,4.9806,4.9797,4.98,4.98,4.9801,4.9804,4.9805,4.9808,4.9785,4.976,4.9813,4.9774,4.9804,4.9804,4.9815,4.9814,4.9916,4.982,4.982,4.982,4.982,0,4.9866,4.9889,4.9854,4.9868,4.9893,4.9864,4.989,4.9879,4.9871,4.9883,4.9851,4.9862,4.9832,4.984,4.9823,4.9846,4.9847,4.9839,4.9833,4.984,4.9841,4.9841,4.9835,4.9822,4.9822,4.9821,4.9821,0,4.9951,4.9929,4.9951,4.9932,4.9928,4.9947,4.9931,4.9944,4.9929,4.9944,4.9946,4.9922,4.9931,4.9908,4.9914,4.9902,4.9935,4.9924,4.9937,4.9933,4.9963,4.996,5.0067,5.0079,4.9977,4.9978,4.9979,0,5.0,5.0017,5.0,5.0005,5.0,5.0008,5.0011,4.9983,4.9987,4.998,4.9993,4.9999,5.0002,5.0018,5.0002,5.0006,4.9994,5.0031,4.9994,5.0001,4.9993,4.9991,4.9992,5.0038,5.0039,5.004,5.0041,0,5.0089,5.0077,5.0081,5.0082,5.0085,5.0085,5.0082,5.0088,5.0059,5.0065,5.0073,5.0076,5.0081,5.0087,5.0088,5.0082,5.0057,5.0053,5.006,5.0067,5.0073,5.0069,4.9956,5.0051,5.005,5.0049,5.0048,5.0048,5.0156,5.0169,5.0159,5.0165,5.016,5.0158,5.0169,5.0155,5.0161,5.0163,5.0147,5.0158,5.0151,5.0149,5.0145,5.0154,5.0137,5.0148,5.015,5.0152,5.0157,5.0073,5.0155,5.0155,5.0154,5.0154,5.0154,0,5.0242,5.0234,5.024,5.0236,5.0241,5.0217,5.0213,5.0219,5.0229,5.0224,5.0228,5.0237,5.0243,5.0228,5.0232,5.0242,5.0231,5.0244,5.0242,5.0241,5.0172,5.0165,5.0253,5.0253,5.0253,5.0253,5.0253,5.0253,5.0287,5.0308,5.0295,5.0313,5.0305,5.0315,5.0315,5.0313,5.0309,5.032,5.0325,5.0315,5.0306,5.0309,5.0314,5.0309,5.0312,5.0329,5.032,5.0256,5.0246,5.0237,5.023,5.033,5.033,5.0388,5.0388,5.0389]}]]